User: anonymous   Login
Location: Newark
(13.6797°N, 8.5297°E)
Time: 05:39:44
(UTC+00:00)
Language:

SR - Orbit

View from above orbital plane
View from above orbital plane
View from above satellite
View from above satellite

Ground track
Ground track

The orbit data is extracted from the following two-line orbital elements,

1    46U 60007B   20025.51013671 -.00000013 +00000-0 +20544-4 0  9990
2    46 066.6904 075.4487 0216591 239.5468 118.4089 14.49270835118250
Epoch (UTC): 25 January 2020 12:14:35
Eccentricity: 0.0216591
inclination: 66.6904°
perigee height: 574 km
apogee height: 882 km
right ascension of ascending node: 75.4487°
argument of perigee: 239.5468°
revolutions per day: 14.49270835
mean anomaly at epoch: 118.4089°
orbit number at epoch: 11825

The dashed part of the orbit path shows where the satellite is in the earth's shadow,  

DLR